Location: Errabaliem
(16.8108°N, 80.4255°E)
Time: 07:25:55
(UTC+00:00)

CENTAUR R/B - Pass Details

Date: 05 August 2024
Orbit: 663 x 1521 km, 63.4° (Epoch: 10 September)

Event Time Altitude Azimuth Distance (km) Brightness Sun altitude
Rises 15:22:50 0° 350° (N) 4,468 6.5 -30.1°
Reaches altitude 10° 15:26:08 10° 0° (N) 3,572 5.8 -30.8°
Enters shadow 15:33:20 32° 53° (NE) 2,362 4.2 -32.2°
